Location: Henham
(51.9333°N, 0.2500°E)
Time: 17:31:09
(UTC+00:00)

Cosmos 1726 - Pass Details

Date: 23 October 2019
Orbit: 483 x 500 km, 82.5° (Epoch: 14 November)

Event Time Altitude Azimuth Distance (km) Brightness Sun altitude
Rises 17:46:38 0° 192° (SSW) 2,543 6.0 -9.5°
Reaches altitude 10° 17:48:44 10° 194° (SSW) 1,666 5.0 -9.8°
Maximum altitude 17:52:23 79° 281° (W) 501 2.2 -10.4°
Drops below altitude 10° 17:56:03 10° 9° (N) 1,678 4.7 -11.0°
Sets 17:58:10 0° 10° (N) 2,564 5.6 -11.3°
